EW3517 Weather Reports


Display with metric or nautical units.
time (UTC)temp
F
wind
direction
speed
MPH
gust
MPH
rain 1hr
in
rain 24hr
in
rain mn
in
humidity
%
barometer
mb
20260507060024 51 63 0.0 0.0 0.00 0.00 0.00 69 1017.9
20260507054511 52 63 0.0 0.0 0.00 0.00 0.00 67 1018.1
20260507053007 53 63 0.0 0.0 0.00 0.00 0.00 65 1018.1
20260507051505 53 63 0.0 0.0 0.00 0.00 0.00 62 1017.7
20260507044600 54 63 0.0 0.0 0.00 0.00 0.00 60 1017.8
20260507043057 55 63 0.0 0.0 0.00 0.00 0.00 59 1017.4
20260507041555 55 103 0.0 0.0 0.00 0.00 0.00 58 1016.6
20260507040055 55 89 0.0 0.0 0.00 0.00 0.00 59 1016.4
20260507034554 55 21 0.0 0.0 0.00 0.00 0.00 59 1016.8
20260507033056 55 21 0.0 0.0 0.00 0.00 0.00 59 1016.8
20260507031552 56 22 0.0 0.0 0.00 0.00 0.00 59 1016.6
20260507030048 56 22 0.0 0.0 0.00 0.00 0.00 58 1016.5
20260507024548 57 22 0.0 0.0 0.00 0.00 0.00 56 1016.2
20260507023048 58 22 0.0 0.0 0.00 0.00 0.00 55 1016.1
20260507021547 58 23 0.0 0.0 0.00 0.00 0.00 53 1015.9
20260507020046 59 23 0.0 0.0 0.00 0.00 0.00 52 1015.7
20260507014551 60 39 0.0 0.0 0.00 0.00 0.00 50 1015.4
20260507013051 61 22 0.0 0.0 0.00 0.00 0.00 49 1015.3
20260507011545 61 65 0.0 0.0 0.00 0.00 0.00 48 1015.2
20260507010054 62 5 0.0 0.0 0.00 0.00 0.00 47 1015.2
20260507004546 62 22 0.0 0.0 0.00 0.00 0.00 47 1015.1
20260507003042 63 30 0.0 0.0 0.00 0.00 0.00 47 1014.9
20260507001542 64 54 0.0 1.0 0.00 0.00 0.00 46 1014.9
20260507000040 65 44 0.0 0.0 0.00 0.00 0.00 46 1014.7
20260506234539 65 22 0.0 0.0 0.00 0.00 0.00 46 1014.6
20260506233054 65 123 0.0 0.0 0.00 0.00 0.00 45 1014.5
20260506231540 65 61 0.0 0.0 0.00 0.00 0.00 45 1014.3
20260506230036 66 34 0.0 0.0 0.00 0.00 0.00 44 1014.2
20260506224536 65 27 0.0 0.0 0.00 0.00 0.00 46 1014.1
20260506223036 65 32 0.0 0.0 0.00 0.00 0.00 45 1013.9
20260506221535 65 107 0.0 0.0 0.00 0.00 0.00 46 1013.6
20260506220032 66 5 0.0 0.0 0.00 0.00 0.00 45 1013.7
20260506214531 66 79 0.0 0.0 0.00 0.00 0.00 44 1013.8
20260506213028 65 11 0.0 1.0 0.00 0.00 0.00 46 1013.9
20260506211529 65 5 0.0 0.0 0.00 0.00 0.00 46 1014.2
20260506210034 66 146 0.0 0.0 0.00 0.00 0.00 48 1014.2
20260506204523 64 5 0.0 0.0 0.00 0.00 0.00 47 1014.4
20260506203020 64 88 0.0 0.0 0.00 0.00 0.00 51 1014.6
20260506201519 64 52 0.0 0.0 0.00 0.00 0.00 51 1014.8
20260506200032 63 26 0.0 0.0 0.00 0.00 0.00 52 1014.8
20260506194514 62 41 0.0 0.0 0.00 0.00 0.00 52 1014.9
20260506193011 61 58 0.0 0.0 0.00 0.00 0.00 54 1015.1
20260506191511 61 17 0.0 0.0 0.00 0.00 0.00 55 1015.2
20260506190009 61 349 0.0 0.0 0.00 0.00 0.00 55 1015.5
20260506184510 61 31 0.0 0.0 0.00 0.00 0.00 54 1015.3
20260506183009 60 13 0.0 0.0 0.00 0.00 0.00 55 1015.5
20260506181513 60 11 0.0 0.0 0.00 0.00 0.00 55 1015.7
20260506180016 60 5 0.0 0.0 0.00 0.00 0.00 55 1015.8
20260506174507 61 58 0.0 0.0 0.00 0.00 0.00 53 1015.9
20260506173006 61 107 0.0 1.0 0.00 0.00 0.00 54 1016.1
20260506171505 61 118 0.0 0.0 0.00 0.00 0.00 55 1016.1
20260506170002 59 181 0.0 0.0 0.00 0.00 0.00 55 1016.2
20260506164623 59 5 0.0 0.0 0.00 0.00 0.00 55 1016.2
20260506163105 59 111 0.0 0.0 0.00 0.00 0.00 57 1016.4
20260506161555 58 135 0.0 0.0 0.00 0.00 0.00 58 1016.5
20260506160105 57 96 0.0 0.0 0.00 0.00 0.00 60 1016.1
20260506154551 55 338 0.0 0.0 0.00 0.00 0.00 62 1016.2
20260506153045 55 35 0.0 1.0 0.00 0.00 0.00 61 1016.1
20260506151542 54 20 0.0 0.0 0.00 0.00 0.00 65 1016.1
20260506150037 53 49 0.0 0.0 0.00 0.00 0.00 68 1016.0
20260506144534 52 91 0.0 0.0 0.00 0.00 0.00 73 1015.7
20260506143034 51 23 0.0 0.0 0.00 0.00 0.00 75 1015.5
20260506141530 51 25 0.0 0.0 0.00 0.00 0.00 75 1015.4
20260506140029 51 79 0.0 0.0 0.00 0.00 0.00 76 1015.5
20260506134525 50 58 0.0 0.0 0.00 0.00 0.00 79 1015.5
20260506133026 49 17 0.0 0.0 0.00 0.00 0.00 79 1015.7
20260506131532 49 5 0.0 0.0 0.00 0.00 0.00 80 1015.5
20260506130022 49 19 0.0 0.0 0.00 0.00 0.00 81 1015.3
20260506124526 49 81 0.0 0.0 0.00 0.00 0.00 82 1015.4
20260506123021 49 49 0.0 0.0 0.00 0.00 0.00 82 1014.8
20260506121517 49 124 0.0 0.0 0.00 0.00 0.00 82 1014.6
20260506120017 48 32 0.0 0.0 0.00 0.00 0.00 82 1014.1
20260506114515 48 9 0.0 0.0 0.00 0.00 0.00 82 1014.2
20260506113015 48 82 0.0 0.0 0.00 0.00 0.00 82 1014.0
20260506111514 49 341 0.0 0.0 0.00 0.00 0.00 81 1013.7
20260506110012 49 360 0.0 0.0 0.00 0.00 0.00 80 1013.5
20260506104510 49 26 0.0 0.0 0.00 0.00 0.00 79 1014.2
20260506103022 49 5 0.0 0.0 0.00 0.00 0.00 79 1014.6
20260506101507 49 23 0.0 0.0 0.00 0.00 0.00 78 1014.1
20260506100005 49 36 0.0 0.0 0.00 0.00 0.00 78 1014.1
20260506094502 49 9 0.0 0.0 0.00 0.00 0.00 78 1013.5
20260506093059 49 10 0.0 0.0 0.00 0.00 0.00 78 1013.0
20260506091558 49 49 0.0 0.0 0.00 0.00 0.00 77 1012.7
20260506090056 49 28 0.0 0.0 0.00 0.00 0.00 76 1012.6
20260506084555 49 5 0.0 0.0 0.00 0.00 0.00 75 1012.6
20260506083053 49 55 0.0 0.0 0.00 0.00 0.00 75 1012.2
20260506081552 49 5 0.0 0.0 0.00 0.00 0.00 74 1011.7
20260506073048 49 11 0.0 0.0 0.00 0.00 0.00 73 1011.2
20260506071550 50 15 0.0 0.0 0.00 0.00 0.00 73 1010.9
20260506070104 50 28 0.0 0.0 0.00 0.00 0.00 73 1010.9
20260506061540 50 14 0.0 0.0 0.00 0.00 0.00 72 1011.0